sat.trackr.live / text

‹ back to catalog

STARLINK-35551

NORAD 66200 · 2025-243Z

PAYLOAD ACTIVE UNKNOWN

§ Identity

Operator
Country
US
Launch date
2025-10-26
Launch site
AFETR
Launch vehicle
Mass (kg)
RCS (m²)

Purposes: comms

External: N2YO · Heavens-Above · Gunter

§ Orbital elements

Epoch: 2026-05-24T15:22:40.183104Z

Period
94.10 min
Inclination
53.1589°
Eccentricity
0.0000841
Mean motion
15.30228920 rev/d
Perigee alt
474.6 km
Apogee alt
475.7 km
Semi-major
6,853.3 km
B*
8.5976e-4
RAAN
252.3624°
Arg perigee
102.7974°
Mean anomaly
257.3121°
Rev number
3,228

§ Raw data

STARLINK-355511 66200U 25243Z   26144.64074286  .00025214  00000+0  85976-3 0  99952 66200  53.1589 252.3624 0000841 102.7974 257.3121 15.30228920 32282

JSON: /api/v1/satellites/66200 · /tle

For live sub-satellite position, see the globe view (requires WebGL).

§ Visibility from observer

Set your observer location to see the next 7 days of passes ≥ 10°. The values pass through the URL so the page stays shareable.

No JS? Fill the form by hand. The geolocation button needs JavaScript.